Theta_e
352 351 352 353 354 355 354 353 353 353 353 352 351 350 349 351 354 354 352 351 352 351 349 348 347 343 342 341 340 338 339 340 340 340 342 345 344 341 341 343 343 343 343 343 344 345 346 345 346 346 346 346 345 346 345 345 345 344 343 344 344 343 343 343 344 345 345 344 344 343 344 344 342 340 338 338 337 337 338 339 339 340 341 341 341
351 352 353 355 355 355 354 354 353 353 353 352 351 351 351 352 354 354 352 351 350 353 351 349 347 345 342 341 339 336 337 339 339 339 339 343 346 341 339 342 343 343 344 344 344 345 346 346 346 346 346 346 345 345 346 345 345 345 345 345 345 345 345 344 343 344 345 344 344 343 343 344 343 341 340 340 340 340 339 340 339 339 340 341 341
353 353 354 355 355 355 355 354 354 353 353 352 351 352 352 354 354 352 352 351 350 352 352 349 347 344 344 342 339 337 336 337 338 339 338 341 346 344 340 340 342 344 344 345 345 345 346 346 346 347 346 347 346 345 346 346 346 345 344 345 345 345 345 345 344 344 344 344 343 342 343 344 343 343 342 343 342 342 342 342 342 341 342 341 340
357 355 355 355 355 355 355 355 355 354 353 353 353 353 353 354 356 355 354 354 352 352 353 351 347 345 344 342 341 337 335 337 337 337 336 338 344 346 345 342 340 342 343 345 345 345 346 346 346 347 347 347 346 346 345 345 345 345 344 345 346 345 344 345 344 344 344 343 342 342 342 344 343 343 343 344 344 344 342 342 343 343 342 342 342
358 356 355 355 356 357 355 355 355 353 355 357 355 353 353 352 355 356 354 353 352 352 352 350 347 345 344 343 341 337 335 336 336 336 336 338 341 345 347 347 344 342 342 343 344 345 345 345 346 346 346 347 347 346 345 345 345 345 344 345 346 346 345 345 344 344 344 344 344 343 343 343 343 343 343 343 344 345 344 343 343 343 343 343 343
358 356 354 354 356 357 357 355 355 356 357 358 355 352 353 353 353 354 354 352 351 352 353 351 348 346 345 344 341 338 336 335 335 336 336 339 340 342 346 349 348 345 342 340 341 342 344 345 347 348 347 347 347 346 346 346 346 346 345 345 346 346 345 344 345 345 345 345 344 344 344 344 344 344 343 343 343 344 344 343 343 343 343 343 343
357 357 355 355 356 357 357 356 358 358 357 358 357 354 354 353 353 354 355 353 352 353 354 352 349 347 345 344 342 339 337 335 336 336 335 338 340 342 345 347 348 348 346 343 341 339 340 343 346 348 348 347 347 347 346 346 346 347 347 346 346 345 345 344 345 346 345 345 344 345 345 344 345 344 343 343 343 342 342 342 342 342 342 342 341
357 357 356 355 355 356 356 357 359 357 357 360 357 355 355 355 355 354 355 355 353 353 354 353 350 347 346 344 341 340 337 335 336 337 337 338 340 342 345 346 346 346 348 347 346 342 338 340 344 346 347 346 347 347 346 346 347 347 346 345 345 345 345 345 346 345 345 346 345 345 346 345 345 344 343 343 343 342 342 342 342 341 341 342 341
356 357 356 354 354 357 355 357 359 358 360 361 357 355 355 355 358 357 355 356 354 353 353 352 349 346 346 344 341 340 337 336 338 339 338 340 341 342 343 345 346 346 346 348 349 346 341 340 341 342 345 345 345 345 346 347 347 347 346 346 345 345 345 345 345 345 345 345 345 345 345 345 344 343 343 342 342 342 342 342 341 341 341 342 342
356 356 356 354 354 356 356 357 359 360 362 361 357 356 355 355 358 359 357 356 354 354 354 350 348 346 346 344 343 341 337 336 338 339 339 340 341 341 341 342 344 343 343 345 348 348 345 344 343 343 344 343 343 343 344 345 345 346 346 346 346 346 345 345 344 345 344 344 344 344 344 343 343 343 343 342 342 342 342 341 341 341 342 343 343
356 356 357 354 354 354 357 360 360 361 362 359 357 357 357 358 357 358 360 358 355 356 355 350 347 346 345 344 344 342 339 338 338 339 340 340 341 341 340 340 341 340 341 342 344 346 346 346 347 348 346 343 342 342 343 344 344 346 346 346 347 345 345 345 345 345 344 344 344 344 343 342 342 342 343 343 343 343 343 342 342 342 342 343 344
356 356 356 355 354 354 358 362 361 361 362 360 357 357 360 361 360 360 362 360 357 357 355 349 346 346 345 344 344 343 341 338 338 339 340 340 341 340 339 339 339 339 339 339 341 343 344 345 346 348 348 345 341 341 342 343 343 344 345 346 347 346 345 345 345 345 345 345 345 344 344 344 343 343 344 344 344 344 344 344 343 343 343 343 343
356 356 357 356 355 357 361 363 361 360 362 362 360 360 362 362 361 361 361 360 358 356 353 348 346 346 344 343 343 342 341 339 338 338 339 339 340 340 339 339 339 338 337 337 338 340 342 343 342 344 345 345 343 342 342 343 341 341 343 344 345 345 345 345 345 344 344 344 343 344 344 344 344 344 343 343 344 343 344 344 344 344 344 343 344
357 356 357 357 357 359 363 366 363 361 362 364 363 363 365 362 361 361 360 358 357 354 351 348 347 345 343 341 341 341 339 337 338 337 338 339 339 339 338 338 339 338 337 336 337 338 339 340 341 342 342 343 344 344 345 346 341 339 341 343 345 345 344 343 343 343 343 343 342 342 342 342 342 342 343 343 343 343 343 343 343 343 343 343 343
357 356 356 359 362 363 364 364 365 362 363 366 365 365 366 364 362 359 357 357 355 352 351 349 346 342 343 344 340 340 339 337 338 337 337 337 338 338 338 339 339 337 337 336 336 337 338 340 342 343 343 342 342 343 345 344 336 330 331 333 338 342 342 341 342 343 342 338 332 330 329 328 328 331 334 337 337 339 341 342 342 343 343 342 342
357 356 356 359 364 364 363 363 365 365 364 367 367 366 365 363 362 358 355 356 353 352 351 347 345 341 341 343 339 340 341 338 339 337 337 336 336 337 338 339 338 337 337 336 334 336 338 341 344 344 344 343 341 342 344 341 330 321 318 319 325 335 340 339 339 339 332 322 318 317 316 316 316 317 320 321 323 326 328 331 333 333 333 332 333
356 357 356 360 363 364 362 363 364 366 367 365 365 364 361 361 361 358 356 355 352 351 351 347 346 345 344 341 339 342 342 338 339 338 337 335 334 337 338 338 338 339 339 336 335 337 338 340 343 343 343 342 341 341 343 340 335 325 316 315 319 327 333 329 326 325 319 316 316 317 317 316 316 315 315 315 316 317 317 318 319 319 319 319 320
355 357 357 359 365 364 362 363 364 366 367 364 363 363 361 360 360 358 356 355 353 352 350 346 345 345 345 343 343 345 343 337 339 339 338 337 335 336 337 338 339 339 339 337 335 336 337 339 341 342 342 341 340 340 339 338 339 334 320 315 316 318 318 317 317 318 319 321 322 322 322 320 319 318 316 316 316 315 316 316 316 316 316 316 316
354 357 357 359 366 365 362 362 362 363 366 366 364 361 360 360 360 357 355 355 354 352 347 345 346 344 343 343 343 343 341 339 341 340 340 341 338 337 338 338 339 340 339 337 336 335 337 338 339 340 340 340 339 338 337 336 335 331 322 319 320 318 317 317 320 322 324 325 326 326 326 324 323 321 319 318 317 317 317 317 316 316 316 316 316
355 356 359 360 364 366 363 363 362 361 364 365 364 361 359 360 358 357 356 356 356 352 346 346 346 344 343 342 341 341 342 342 342 342 342 340 338 338 338 338 339 339 340 337 337 337 338 337 338 339 340 340 339 338 338 337 333 328 324 325 325 324 324 324 324 326 327 327 328 328 328 328 327 326 324 323 323 324 323 322 321 321 319 318 317
358 356 359 360 361 364 363 364 363 362 362 363 363 361 361 361 358 358 357 357 356 352 348 347 345 344 343 343 341 341 341 341 341 343 343 342 340 338 339 340 339 339 339 337 337 339 339 338 338 338 339 340 340 339 338 339 338 336 330 327 327 327 327 327 327 327 328 328 328 329 329 329 329 329 329 329 328 328 328 328 327 326 326 325 324
360 358 359 361 361 361 362 363 363 362 362 362 360 360 360 360 359 358 357 356 355 352 349 347 346 345 344 343 343 344 341 341 342 341 342 343 342 340 339 339 340 340 340 338 338 338 338 338 338 337 337 338 339 339 339 339 340 340 334 328 328 329 328 328 328 328 328 328 328 328 329 328 329 329 329 329 330 330 329 330 330 330 331 331 330
359 359 359 360 361 361 360 360 361 362 361 360 358 359 359 359 359 358 358 357 355 352 349 348 346 346 346 344 344 346 344 344 342 340 341 342 342 341 339 340 340 340 340 340 339 338 338 338 338 336 337 338 338 338 340 339 338 339 336 330 328 329 329 329 329 329 329 328 329 329 329 329 329 329 329 329 329 329 330 330 330 330 331 331 331
358 357 358 359 360 361 360 359 360 361 361 360 359 359 358 357 357 358 358 357 355 351 349 350 348 345 346 346 344 344 344 343 342 341 341 341 343 342 340 341 340 340 340 341 340 339 339 338 336 336 335 336 337 338 338 339 339 337 335 331 329 329 329 329 329 329 329 329 329 329 329 329 329 329 329 330 330 330 330 330 330 330 330 330 331
358 357 357 357 359 361 362 359 359 362 362 360 359 358 358 358 358 358 358 357 355 352 349 351 350 345 343 345 344 343 344 343 341 342 342 342 344 344 342 341 340 340 341 340 340 339 338 337 337 336 335 335 337 338 338 338 339 337 334 333 333 330 329 330 329 329 329 329 329 329 330 329 330 330 330 330 330 330 330 330 330 330 330 330 331
360 358 357 356 357 360 362 362 361 361 362 362 359 360 359 359 358 358 357 356 355 351 350 351 350 345 343 344 345 344 344 344 340 341 342 342 342 341 341 342 339 338 341 341 340 339 338 336 336 336 336 336 336 338 339 337 338 337 335 335 335 333 331 330 330 330 330 330 329 330 330 330 330 331 331 330 330 331 331 331 331 331 331 331 330
360 359 358 357 356 359 362 363 362 361 363 363 362 361 361 361 360 359 357 357 355 351 350 351 351 347 343 344 346 345 344 345 342 339 341 342 341 339 341 344 341 339 340 342 340 338 338 336 336 336 336 337 337 338 339 337 337 337 335 334 336 336 334 333 331 330 330 330 330 330 331 331 331 331 330 330 329 329 330 330 331 331 331 331 331
361 360 359 359 357 358 362 363 362 361 362 363 363 361 361 361 361 361 359 356 355 352 350 352 351 348 345 344 347 347 344 345 344 342 340 342 343 342 342 344 344 343 341 342 341 339 338 336 337 337 337 338 339 337 338 338 337 336 335 335 336 336 336 336 335 333 331 330 330 330 330 331 331 330 329 328 327 326 325 325 326 328 329 330 331
359 360 360 361 360 359 361 362 362 361 361 362 362 360 360 361 361 361 360 357 355 353 351 352 351 347 345 345 346 346 345 344 344 344 343 342 343 345 343 343 344 345 344 344 344 341 338 337 337 338 338 339 340 339 339 339 338 337 336 337 337 338 338 339 339 336 332 331 330 330 331 330 330 329 327 327 327 325 324 323 323 324 326 328 329
358 359 361 362 362 362 362 362 361 361 361 361 361 360 360 361 361 361 360 358 356 353 351 351 351 346 346 346 346 345 344 346 346 344 344 345 344 344 344 343 343 344 345 346 344 341 340 338 336 338 340 341 340 340 340 340 339 338 338 338 338 339 339 339 339 336 332 332 331 331 330 329 328 327 328 329 328 327 325 324 323 323 324 325 327
360 359 360 362 363 363 363 363 361 361 361 361 361 361 359 360 361 360 359 358 356 353 351 352 351 347 346 346 347 346 345 346 346 344 344 346 345 344 344 343 343 343 344 345 344 341 339 338 337 339 341 342 341 340 340 341 340 337 337 339 339 339 339 340 337 333 331 331 330 329 328 327 328 328 330 330 330 328 326 324 323 323 324 325 326
362 361 362 362 363 364 364 363 360 360 361 360 361 362 361 360 360 358 357 357 356 354 353 353 351 348 347 347 348 348 347 347 348 345 344 345 346 345 344 343 343 344 344 344 344 343 341 339 338 339 340 341 341 340 340 342 341 337 335 338 341 339 339 339 336 332 331 331 330 328 328 328 329 330 330 331 331 329 327 325 324 324 324 324 325
363 362 362 362 362 363 363 363 360 359 361 361 360 361 362 360 360 358 357 356 356 354 353 354 353 349 348 348 349 350 349 349 349 347 344 346 347 345 344 344 343 344 344 344 344 344 342 340 340 339 339 340 342 342 340 340 342 340 337 337 339 340 340 338 336 336 335 334 333 331 329 329 329 329 329 330 331 330 328 327 325 324 324 323 324
363 363 363 364 363 363 364 363 362 360 361 362 361 362 363 362 360 359 358 357 357 355 354 354 354 351 349 349 350 351 351 350 349 349 346 346 346 345 344 344 344 344 344 343 343 342 342 342 342 342 340 340 340 341 341 340 341 342 341 339 338 339 340 339 337 336 336 335 335 334 332 330 329 328 329 330 330 331 331 329 327 325 324 323 323
364 364 363 364 364 364 363 364 364 362 362 363 363 362 363 363 362 361 360 359 359 357 356 355 355 354 351 351 351 350 350 350 349 349 348 346 346 345 344 344 344 344 343 343 343 342 342 342 342 343 342 341 340 340 341 341 341 341 341 341 340 340 340 340 338 337 336 335 335 335 333 332 331 330 329 329 330 331 331 329 328 326 324 324 323
362 364 364 364 365 365 364 364 364 364 363 364 364 363 363 364 364 362 361 361 360 359 357 356 357 356 353 352 351 349 349 350 350 350 348 347 346 346 345 345 345 344 344 344 344 343 342 342 343 343 342 341 341 341 341 341 341 341 340 341 340 340 340 340 340 339 338 336 335 335 335 334 334 331 329 329 330 331 331 329 328 327 326 325 324
359 362 364 365 365 366 366 364 364 365 365 365 365 364 363 363 365 364 363 362 361 360 359 358 358 357 354 353 352 350 348 350 350 350 349 348 348 347 346 345 345 345 344 344 345 345 343 342 342 343 342 342 341 341 342 341 341 340 340 340 340 340 340 340 338 337 337 337 336 336 336 335 334 332 330 330 330 330 331 329 328 328 327 325 325
359 360 364 365 366 366 367 366 365 366 366 366 367 365 363 363 364 364 363 362 362 361 361 360 359 358 356 354 353 351 348 349 350 350 349 349 348 348 347 346 346 346 345 344 344 345 345 344 342 342 343 343 342 342 342 342 341 341 339 340 341 340 341 340 338 337 335 335 335 336 336 336 335 334 333 332 331 331 330 329 328 328 327 326 325
362 359 361 365 366 366 367 368 366 366 366 366 367 367 364 362 363 365 364 363 363 363 362 361 359 358 356 356 354 352 350 348 350 351 351 349 349 349 349 348 346 346 346 345 343 344 346 345 344 342 342 342 342 342 342 342 342 342 340 340 341 341 342 343 343 340 336 334 334 335 335 336 335 334 333 332 332 332 331 330 330 329 327 326 325
364 360 359 362 365 367 367 368 368 367 367 368 367 367 366 363 362 364 365 363 363 364 364 362 360 359 357 356 355 353 351 349 348 351 351 350 350 350 349 348 347 347 346 345 345 344 345 346 345 343 342 342 341 340 341 341 342 344 342 340 340 340 340 343 344 342 340 337 336 335 334 335 336 335 334 334 333 332 333 333 331 329 327 326 325
364 362 358 359 364 366 368 369 369 367 367 368 368 367 367 365 363 363 364 364 362 362 363 363 361 360 358 357 356 355 353 351 349 350 350 350 350 350 350 350 349 347 347 346 345 345 346 346 345 343 342 342 341 340 341 341 342 344 342 341 341 339 338 338 339 340 340 339 338 336 335 336 336 336 336 335 334 334 333 332 330 329 329 328 326
363 364 362 359 361 365 367 369 370 369 368 368 367 365 365 366 365 363 364 364 362 361 363 363 362 360 359 358 356 355 354 352 350 349 349 350 349 350 350 350 349 348 347 347 346 346 346 346 345 343 343 342 341 341 341 341 341 341 340 342 343 341 338 338 337 337 337 338 339 337 336 336 336 336 336 335 333 332 331 330 329 328 327 326 323
364 364 364 362 360 363 366 368 369 370 370 368 366 365 364 364 365 365 365 364 364 363 362 363 363 362 361 359 358 356 354 353 351 350 349 348 348 348 350 350 349 348 348 348 347 346 346 346 345 344 344 343 341 340 340 340 340 339 339 342 343 341 338 338 337 336 336 337 339 339 337 335 334 334 334 332 331 330 328 327 327 326 324 322 321
365 365 365 365 362 362 365 367 369 370 369 367 365 365 364 362 362 364 365 364 364 364 363 363 363 363 362 360 359 358 357 355 353 351 350 349 347 348 348 349 349 349 348 348 348 347 345 345 345 345 343 342 342 341 340 340 339 338 339 340 341 339 337 337 336 335 335 337 338 337 336 335 333 332 331 330 329 328 326 326 325 324 322 321 320
365 365 366 366 365 364 364 366 368 369 369 369 366 364 363 362 360 362 364 364 364 364 364 363 363 364 363 361 360 360 359 356 354 353 352 350 348 347 346 347 348 349 348 348 347 346 346 345 346 346 343 342 342 341 339 339 339 338 339 339 338 337 337 337 336 336 335 336 336 336 334 333 331 329 329 328 327 327 326 325 324 322 320 319 317
366 367 367 366 367 365 364 365 366 369 369 368 367 365 362 361 359 359 361 363 364 364 365 364 363 364 363 362 362 361 360 358 355 355 354 352 350 348 347 346 347 348 348 347 346 345 346 346 347 347 344 342 342 342 340 340 340 339 338 338 337 337 337 337 336 336 335 334 334 334 333 330 329 328 327 326 325 325 324 324 322 320 318 317 315
367 368 368 368 367 366 366 366 366 367 368 367 368 366 363 361 360 359 360 363 363 364 365 365 364 363 363 363 362 362 361 360 356 355 355 355 352 349 347 347 347 347 347 346 345 344 343 343 345 346 345 343 342 341 341 341 340 340 339 338 337 336 337 336 335 334 334 333 333 332 331 330 328 326 325 324 323 323 323 323 321 318 316 316 315
367 368 368 368 368 367 368 367 365 366 367 367 367 366 365 362 360 359 360 361 362 363 365 365 365 364 363 363 363 362 361 361 359 355 354 354 354 351 349 348 347 347 346 345 344 343 342 341 342 343 345 344 342 342 341 340 341 340 338 337 337 336 336 334 334 333 331 331 332 331 329 329 327 324 323 322 322 322 321 320 319 318 316 316 316
368 368 369 369 369 368 368 367 367 367 366 366 366 366 365 364 362 360 360 361 362 362 363 364 364 364 364 363 363 362 361 361 360 357 353 354 355 353 351 350 348 347 347 346 344 343 341 340 341 341 341 342 341 340 340 339 340 339 337 336 335 335 334 335 335 333 328 328 330 329 328 327 326 323 322 321 321 320 319 318 318 318 316 315 315
367 368 368 369 369 368 368 367 368 367 366 366 366 366 365 364 363 361 359 361 362 362 363 364 364 364 363 362 361 361 361 360 360 358 353 352 355 355 352 352 351 348 348 347 345 343 341 340 340 340 340 340 339 339 339 338 337 336 335 335 333 332 332 334 333 330 327 327 327 327 327 326 323 321 320 320 319 319 318 317 317 317 317 316 316
367 367 367 368 368 368 368 367 367 366 366 367 366 365 364 364 363 361 360 361 362 362 362 363 363 363 362 361 359 358 358 358 359 359 356 352 354 356 354 352 352 350 349 349 346 343 342 341 340 339 339 338 338 337 337 336 332 330 332 334 332 331 332 331 330 328 328 327 326 325 326 325 323 321 320 319 318 318 317 316 316 317 317 316 316
Wind_Speed
5 5 4 3 2 2 2 2 2 2 3 3 3 1 2 2 2 2 2 3 3 3 3 1 0 1 3 2 3 6 5 4 5 4 6 10 7 5 5 5 5 6 6 7 7 7 7 6 6 6 6 6 6 6 6 6 5 6 8 7 7 6 5 4 4 4 4 4 4 4 4 5 5 4 4 4 4 4 4 4 4 5 5 5 5
5 5 4 3 2 2 2 1 2 1 2 2 3 2 1 3 2 1 2 3 3 3 2 0 1 1 3 2 1 5 5 3 5 4 4 10 9 5 5 5 5 6 6 6 6 6 7 7 7 7 7 7 6 6 6 6 5 5 6 7 7 7 6 6 5 5 5 5 4 5 5 6 6 5 5 5 5 5 5 5 5 5 6 6 6
4 5 4 3 3 3 2 2 2 2 1 2 1 2 1 3 1 1 2 3 3 3 2 1 1 1 3 2 2 3 5 2 3 6 5 9 10 6 5 6 6 6 6 6 6 6 7 7 7 7 7 7 7 7 6 6 6 6 6 7 7 8 7 6 6 6 7 6 5 5 5 6 6 6 7 6 6 6 6 6 7 7 7 7 7
3 4 4 3 3 3 3 2 1 2 1 0 1 1 1 1 1 1 1 2 3 3 2 1 1 1 2 2 2 4 4 2 1 2 4 7 9 8 6 6 7 7 6 6 6 6 7 7 7 7 7 7 7 6 6 6 6 6 7 7 7 7 7 7 7 8 8 7 7 6 6 6 6 7 8 7 7 7 8 8 8 8 9 8 8
4 5 4 4 4 3 3 3 3 2 2 1 1 1 3 2 1 1 0 2 3 3 2 2 2 1 2 1 1 3 2 3 2 2 3 5 9 9 6 6 6 8 7 6 6 6 6 6 7 7 7 6 6 6 6 7 7 6 6 7 6 7 7 8 9 9 8 8 8 7 7 7 7 8 8 8 8 8 9 8 8 8 8 8 8
5 6 6 5 4 4 4 4 3 3 2 2 3 2 3 1 1 1 0 1 2 4 3 1 1 1 1 1 0 1 1 2 2 2 2 3 7 8 6 6 6 6 7 7 6 5 5 5 6 7 6 6 6 6 7 6 6 5 5 5 6 7 9 9 9 9 9 9 9 9 8 8 8 8 9 9 9 9 9 9 9 8 8 8 8
7 7 6 6 5 5 5 4 3 3 2 3 3 2 1 1 1 1 1 1 2 3 2 0 0 1 1 1 1 0 2 4 2 1 3 2 6 7 5 5 6 5 6 7 7 5 4 3 4 5 5 5 6 5 6 6 5 5 4 4 6 8 9 9 9 9 9 9 9 9 9 9 10 10 10 10 11 11 10 10 10 10 9 9 8
8 8 7 6 6 5 5 4 3 4 3 2 2 3 2 2 1 1 1 2 3 3 1 1 0 1 2 1 1 0 3 5 2 1 4 3 6 7 4 5 6 6 7 8 7 5 5 5 4 4 4 3 4 5 5 5 5 5 4 5 7 9 9 8 8 8 9 10 10 10 10 11 11 12 12 12 12 12 11 11 11 11 10 10 10
10 9 8 7 6 6 6 6 5 4 3 2 3 3 2 1 1 2 2 2 3 2 1 1 0 1 2 2 2 0 2 4 1 2 4 3 4 6 5 5 6 6 7 8 6 5 6 6 5 5 4 3 3 3 4 4 5 4 4 6 8 9 9 8 8 9 10 10 11 11 11 11 11 12 12 12 12 12 12 12 12 12 12 12 11
11 9 9 8 7 7 6 5 5 4 3 4 4 3 2 2 1 2 1 2 3 2 1 1 1 1 2 2 0 1 2 3 1 1 3 3 3 5 6 4 4 5 6 8 5 4 6 6 5 5 5 4 2 2 3 2 2 3 4 5 7 8 8 8 8 10 11 10 11 12 12 12 11 12 12 11 11 11 11 11 12 11 11 12 11
12 10 9 9 8 8 6 4 4 4 5 5 5 4 3 3 2 3 2 2 3 2 1 1 1 1 3 4 1 2 1 2 2 3 3 4 4 4 6 5 4 6 5 6 6 5 6 5 5 5 4 4 3 2 3 3 3 3 3 4 5 6 6 7 8 9 10 10 10 11 12 11 11 12 12 11 10 10 10 11 11 11 11 11 11
12 11 10 9 9 8 6 5 5 5 5 5 5 3 3 3 2 2 2 2 2 1 1 1 2 3 2 4 4 1 1 2 2 4 5 4 4 2 5 6 4 5 5 5 6 6 6 5 5 5 4 4 4 4 3 3 3 3 4 3 3 4 4 5 7 7 8 9 9 9 9 9 9 11 11 10 9 9 9 9 10 11 10 10 10
13 12 11 11 10 8 6 6 6 6 5 5 5 3 2 2 2 2 3 3 2 2 2 1 2 4 3 3 5 3 4 4 4 5 6 6 6 3 4 6 5 5 6 6 6 7 7 6 5 5 5 4 5 6 5 5 3 3 3 3 3 2 3 3 4 4 5 6 6 6 6 5 6 7 9 9 8 8 8 9 9 9 9 9 10
13 13 12 11 11 9 7 7 7 7 6 5 5 4 4 3 3 3 3 4 3 2 3 3 3 3 2 3 6 4 3 3 5 5 7 7 8 5 4 5 6 5 6 7 7 6 7 6 6 6 5 4 4 5 6 5 4 4 4 4 4 2 1 1 0 0 1 2 2 3 3 3 3 4 4 5 5 6 6 7 7 7 7 8 9
14 14 13 12 12 10 9 8 7 7 6 6 6 5 5 4 5 5 4 4 4 3 3 4 3 2 3 1 4 5 3 3 6 6 7 7 7 8 5 3 6 3 3 7 8 6 6 6 7 6 5 5 4 6 6 5 5 5 5 5 4 4 2 1 2 3 3 3 2 2 2 2 3 3 3 3 3 4 4 4 4 5 5 6 7
15 15 14 13 12 11 10 9 8 8 7 6 6 6 6 5 5 5 4 4 4 4 3 4 3 2 2 1 1 3 3 5 6 5 7 8 6 8 8 5 7 5 3 7 9 6 7 6 6 6 5 5 5 6 7 5 5 5 6 5 5 6 5 3 2 3 4 4 3 3 3 3 3 3 3 3 3 4 3 3 3 4 5 5 6
16 15 15 14 13 12 11 9 8 8 8 7 7 6 6 5 6 6 5 4 2 3 4 3 3 2 1 1 1 2 2 7 8 5 6 7 7 7 10 7 8 5 0 7 8 5 8 7 5 6 5 5 5 6 7 6 6 5 5 5 6 7 7 6 4 4 4 4 4 4 4 3 3 3 3 3 3 3 3 3 3 3 4 4 4
16 16 16 15 14 13 13 11 9 9 8 8 7 6 6 6 6 6 5 4 2 2 3 3 2 2 2 1 2 2 2 5 6 2 6 3 6 7 8 7 7 6 3 5 6 4 6 7 5 6 5 5 6 6 7 7 7 5 5 6 7 8 8 8 7 6 5 4 4 4 3 3 3 3 3 3 3 3 3 3 3 4 4 4 4
17 17 17 16 14 13 14 12 11 10 9 8 8 7 7 6 7 6 5 4 4 3 4 5 5 4 4 4 5 2 2 2 3 3 3 3 3 6 7 7 7 6 6 7 9 7 5 5 5 5 5 5 5 6 7 7 6 6 7 8 9 9 9 8 8 7 5 4 4 4 4 4 4 3 3 3 3 3 3 3 3 3 4 4 5
17 17 17 17 15 13 14 13 12 11 9 9 9 8 7 6 6 6 5 5 5 4 5 6 8 6 6 6 6 4 1 3 2 2 3 3 3 5 5 8 8 7 7 6 7 10 8 5 4 4 5 5 5 5 6 6 6 7 8 9 10 9 9 8 8 7 6 5 4 3 3 3 3 3 3 3 3 4 4 4 3 3 4 4 5
18 18 18 18 17 15 14 14 13 12 11 10 9 8 8 7 7 7 7 6 6 5 6 6 6 7 8 7 7 6 6 5 3 2 3 3 4 4 5 6 6 7 7 6 6 12 10 7 5 4 4 4 4 4 5 6 6 6 7 8 9 9 9 8 8 7 6 5 4 3 2 2 2 2 2 2 3 4 4 5 5 5 5 5 5
18 18 18 18 18 17 16 15 14 13 12 11 10 9 9 9 9 8 7 7 6 7 7 7 6 5 9 9 8 8 8 6 6 7 4 2 1 4 7 8 6 7 7 6 6 7 8 10 7 5 5 4 3 4 5 6 7 8 8 7 7 8 8 8 7 6 6 5 4 3 2 1 1 1 1 2 3 4 5 5 6 6 6 7 7
17 18 18 18 18 18 17 16 15 14 13 12 11 10 10 10 9 8 8 8 8 8 8 9 8 6 8 10 9 8 7 6 7 7 5 4 3 4 6 6 4 6 7 5 6 5 4 7 5 5 7 5 4 5 6 7 7 9 9 8 8 7 7 7 7 6 6 5 4 4 3 3 3 3 4 4 5 6 6 7 7 7 7 8 8
17 17 19 19 18 18 18 16 15 15 14 13 11 11 10 10 9 9 9 9 9 9 9 10 10 9 9 10 10 10 8 8 8 6 4 4 2 3 3 0 1 4 7 5 6 6 6 6 6 6 6 6 7 7 6 7 8 10 10 9 9 8 8 8 8 8 8 7 7 6 5 5 5 6 6 7 8 9 9 10 10 10 10 10 10
18 18 19 19 19 19 18 18 17 16 15 14 12 12 11 10 10 9 10 10 10 11 11 11 11 11 11 10 10 10 10 9 8 6 5 4 3 4 3 1 2 5 6 5 6 7 9 10 11 10 8 7 8 8 7 7 9 10 9 10 11 9 10 10 10 10 10 9 8 7 7 7 8 8 9 10 11 12 12 13 13 13 13 13 13
19 19 19 19 19 19 19 18 18 17 16 15 14 13 12 11 10 10 11 11 11 12 12 12 12 12 12 11 10 10 10 10 8 7 7 7 7 6 4 3 5 4 6 6 5 7 9 10 12 11 8 7 7 8 9 8 10 12 10 10 12 12 12 13 13 13 12 11 10 10 9 10 10 11 12 13 14 14 15 15 15 15 15 15 15
20 20 19 19 19 19 19 19 18 18 17 17 15 15 14 12 12 12 12 11 12 12 13 13 13 14 13 12 11 10 9 9 9 8 7 7 7 8 6 4 4 4 6 7 6 8 9 7 8 9 8 8 8 8 10 9 10 12 11 10 12 13 13 14 14 15 15 14 13 12 12 12 12 13 14 14 14 15 15 15 15 16 16 16 16
19 20 20 21 20 20 20 20 19 19 19 18 17 15 15 14 13 13 13 13 13 13 14 14 14 14 15 13 11 10 9 9 8 8 8 7 6 6 7 6 4 3 4 5 6 8 9 8 7 8 8 9 10 9 10 10 11 12 12 11 12 13 14 14 14 16 17 16 16 15 14 13 14 14 14 14 14 14 14 14 14 15 15 15 15
20 20 21 22 22 22 21 21 20 20 19 19 18 16 16 16 15 15 14 14 14 14 15 15 14 14 15 14 13 11 9 9 9 8 8 8 6 6 7 7 6 4 3 3 4 5 8 9 8 10 10 10 10 9 9 9 11 13 12 11 11 12 14 14 14 15 16 17 17 16 15 14 14 14 13 13 14 14 14 14 14 14 14 14 15
21 20 21 22 22 23 22 22 21 21 20 19 18 17 17 16 16 16 16 15 15 15 16 16 14 14 14 14 14 13 10 10 10 9 9 9 9 8 8 8 8 6 5 3 4 5 7 8 8 10 12 11 10 9 8 9 11 12 11 11 11 12 14 14 13 13 14 15 16 15 15 14 13 13 13 13 14 14 14 14 14 14 14 14 14
23 22 21 22 22 23 23 23 22 22 22 21 20 19 18 17 17 17 17 17 17 17 17 17 15 15 15 15 15 14 12 11 11 11 10 11 11 10 10 10 9 9 8 5 4 5 7 7 6 7 11 10 9 8 8 9 11 12 10 9 11 12 13 13 13 12 12 14 14 14 13 12 12 13 13 14 14 14 14 14 15 15 15 15 14
23 23 23 23 23 24 24 23 23 23 23 22 21 21 20 19 18 18 18 19 19 18 18 17 17 16 16 16 15 15 13 12 12 12 12 12 12 12 11 11 11 11 10 8 6 6 7 7 7 6 8 10 9 8 8 9 11 11 10 9 10 11 12 12 13 12 11 12 12 12 11 11 12 13 14 15 15 15 15 15 15 15 14 14 15
24 24 24 24 24 24 24 24 23 23 23 23 22 22 22 21 20 20 19 20 21 20 19 18 18 17 18 18 16 15 15 14 13 13 13 13 13 13 13 12 12 12 12 11 9 7 8 8 8 7 7 9 10 9 9 10 10 11 10 10 10 11 11 11 12 13 12 12 11 11 11 11 12 14 15 16 16 16 16 15 15 14 14 14 14
25 25 25 25 25 24 24 24 24 24 24 24 23 22 22 22 22 21 20 21 22 22 21 20 19 19 18 19 19 17 16 15 14 14 13 14 14 14 14 14 13 13 14 13 11 10 10 10 10 9 8 8 9 9 10 11 11 10 10 10 11 11 11 11 11 13 14 13 12 12 12 13 14 15 17 17 17 18 17 16 15 14 13 14 14
26 26 26 25 25 25 25 24 24 24 24 24 24 23 23 23 23 22 21 22 23 23 22 21 21 20 19 20 20 19 18 17 17 15 14 14 14 15 15 15 14 14 14 15 13 11 11 10 11 11 11 10 11 10 10 11 11 11 11 11 11 11 12 12 11 11 11 10 11 12 13 15 16 17 18 18 19 19 18 17 15 14 14 14 15
26 26 26 25 25 25 25 24 24 24 24 25 25 24 24 24 23 23 23 23 23 24 23 22 22 22 21 21 21 21 20 19 19 18 16 16 15 15 15 16 15 15 14 15 15 13 11 11 11 11 11 11 12 12 11 11 12 12 12 12 12 12 12 11 11 11 11 10 11 12 14 17 18 19 19 19 19 19 19 17 16 15 15 16 17
27 26 26 26 26 25 25 25 25 25 25 25 25 25 24 24 24 24 23 23 23 24 24 23 23 23 23 22 22 22 22 21 20 20 19 18 17 16 16 16 16 15 14 14 15 14 13 12 11 11 10 11 11 12 12 12 12 12 13 13 13 12 11 11 11 11 11 11 12 13 14 15 16 16 16 17 18 19 19 18 16 16 16 17 17
29 28 27 27 27 27 27 27 27 27 27 27 26 26 25 25 25 24 24 23 23 23 24 24 24 24 24 24 23 23 24 23 22 21 21 20 19 18 18 17 16 16 15 15 15 15 14 13 12 11 11 11 11 12 13 13 12 12 13 13 13 12 11 11 11 11 10 10 11 12 12 12 13 14 15 15 17 18 18 18 17 17 17 17 16
30 30 29 28 28 28 28 28 28 29 28 28 28 27 27 26 25 25 24 24 23 23 24 24 24 25 25 24 24 24 25 25 24 23 22 22 21 20 20 18 17 16 16 15 15 15 14 14 13 12 12 12 13 13 13 13 12 12 11 11 12 11 11 10 11 11 10 9 10 11 11 11 13 15 16 16 16 17 17 17 16 15 14 14 14
30 30 30 30 29 28 29 30 30 30 30 29 29 29 29 28 27 26 25 25 25 24 24 24 25 26 25 25 25 25 26 27 26 25 24 23 22 22 21 20 18 18 17 16 15 15 15 14 13 13 13 13 14 14 13 13 13 12 12 11 11 11 10 10 10 10 10 9 9 10 10 10 12 14 15 14 14 14 14 14 14 14 13 12 12
29 30 30 30 29 29 29 30 30 30 30 31 31 31 30 29 29 28 27 26 26 26 25 25 26 27 26 25 25 26 27 28 29 27 25 24 23 23 22 22 20 19 18 16 16 16 15 14 14 14 14 14 15 15 14 14 14 13 12 11 11 10 10 10 10 10 9 9 9 9 8 8 10 11 10 11 11 11 13 15 17 16 13 12 12
29 29 29 30 30 29 29 29 30 30 30 31 33 35 34 32 29 28 28 27 27 27 26 25 26 27 27 26 25 26 28 29 30 30 29 27 26 24 23 23 22 21 19 18 17 16 16 15 15 15 15 15 16 16 16 16 15 14 12 12 11 10 9 9 9 9 9 9 9 9 8 8 9 9 9 10 11 11 13 13 12 11 9 9 10
30 29 28 29 30 30 30 30 30 30 31 32 35 38 38 36 32 29 28 28 27 27 27 26 26 27 27 26 25 26 28 30 31 32 32 31 30 28 25 23 24 23 21 20 19 18 17 16 16 16 16 16 16 17 17 17 17 15 13 12 11 10 9 9 8 8 8 8 8 8 9 8 9 10 11 12 11 12 12 10 8 8 10 12 15
30 29 29 29 31 30 30 30 31 31 31 33 37 39 41 41 38 32 27 27 27 27 28 27 26 26 26 26 25 25 27 30 32 33 34 33 32 32 30 26 25 26 24 22 20 19 18 18 17 17 17 17 17 17 18 17 16 14 12 12 12 11 10 9 8 6 6 6 7 8 9 8 8 10 12 11 11 11 10 10 10 13 15 17 18
30 30 30 30 30 31 31 30 31 31 31 33 37 40 42 43 43 38 31 27 27 27 27 28 28 27 26 25 25 25 25 29 32 32 33 36 35 34 33 31 28 28 28 26 23 21 20 19 18 18 19 18 17 17 17 16 14 12 12 12 13 13 11 9 9 7 5 6 6 7 8 8 8 10 10 10 9 9 9 12 14 15 15 16 16
30 31 31 30 31 32 32 31 31 31 31 32 36 40 43 43 45 44 37 29 27 28 28 29 29 28 28 27 26 26 24 28 32 31 30 33 36 36 36 35 32 30 30 30 28 26 24 21 19 18 20 21 18 16 15 14 12 12 12 13 13 13 11 9 8 7 8 10 10 8 8 7 6 8 9 9 8 8 10 12 13 12 13 14 15
31 31 31 31 32 32 32 32 31 31 31 32 35 38 42 44 45 46 42 33 29 29 29 30 30 30 30 29 27 27 26 28 33 34 30 30 32 35 36 35 32 28 29 31 30 28 27 25 21 18 18 19 20 18 15 13 13 13 12 12 11 9 9 8 8 10 14 16 14 9 6 6 6 7 8 8 9 9 10 11 12 13 14 14 13
29 30 30 31 31 31 32 32 32 32 31 32 35 37 41 43 44 46 46 37 31 30 29 29 30 30 30 31 30 29 29 29 33 38 35 30 28 30 31 31 30 27 27 29 31 30 27 25 23 21 20 19 20 21 19 15 14 13 11 10 9 8 8 8 9 12 14 12 14 12 8 7 6 7 8 8 9 10 10 12 14 14 12 11 13
29 30 29 29 30 31 32 32 32 32 31 33 37 39 40 42 43 47 47 38 31 31 29 29 31 31 32 33 32 31 30 30 33 37 38 34 28 27 29 28 27 27 25 26 29 31 29 26 24 23 25 24 20 20 21 19 16 14 12 11 11 10 10 11 11 11 10 8 11 12 8 7 6 6 8 9 9 11 12 12 11 10 9 11 14
29 29 28 27 28 29 31 32 32 32 31 33 37 39 41 42 43 46 46 37 31 30 30 30 32 33 33 35 36 34 32 33 34 36 39 38 31 27 28 27 25 26 25 23 25 30 30 28 27 25 26 25 20 18 21 21 19 16 13 12 12 11 12 13 11 9 8 8 9 10 8 6 6 5 7 9 10 11 11 9 7 8 10 12 13
27 26 26 26 26 28 29 31 33 33 32 32 35 37 39 41 42 46 43 35 30 31 29 29 31 32 34 37 40 40 37 35 36 38 40 40 35 30 29 27 25 26 26 23 25 31 31 29 27 26 25 25 21 19 20 20 19 18 16 13 12 12 12 12 10 8 7 7 8 11 8 6 6 5 6 7 8 8 8 8 8 8 9 10 11
Wind_Direction
185 190 195 195 188 191 201 150 119 114 160 136 123 146 88 96 70 35 16 30 35 15 21 46 355 80 87 78 104 102 105 112 101 104 124 130 126 119 133 138 138 145 159 167 165 167 172 175 178 179 180 183 180 174 183 188 180 182 186 180 177 179 180 190 200 212 221 218 222 230 227 229 237 240 246 254 261 271 279 287 291 297 304 306 307
189 190 188 189 191 196 203 159 137 172 208 112 107 179 66 81 99 41 10 20 33 24 29 19 313 115 94 57 83 95 101 125 128 125 135 139 134 119 120 129 139 146 157 168 169 169 175 178 181 184 182 190 193 185 189 193 186 191 199 197 189 187 191 198 202 216 235 233 231 245 246 243 245 251 264 267 271 281 284 290 295 301 306 305 305
185 187 191 194 194 197 200 193 171 170 202 28 113 179 82 80 111 26 13 7 7 24 34 352 331 119 93 58 12 61 95 117 152 147 122 126 135 132 123 118 126 139 149 160 166 170 178 181 184 186 183 192 201 196 196 194 192 199 206 208 201 198 201 205 210 217 229 237 234 241 249 251 249 246 257 266 268 275 279 284 289 294 295 295 298
178 185 197 196 196 198 199 202 197 179 169 50 178 169 164 145 120 51 24 353 328 18 38 314 291 152 103 96 26 43 90 119 152 140 105 119 132 127 129 128 116 121 133 145 157 167 178 184 186 189 188 193 199 199 201 199 201 207 205 206 208 208 210 212 220 224 229 236 236 236 240 244 248 245 252 263 267 271 276 281 285 289 290 290 292
192 195 205 201 199 200 204 204 208 216 177 164 220 218 229 222 133 179 25 347 330 11 1 297 284 255 104 125 90 65 125 159 127 117 122 130 124 117 128 143 124 112 116 127 144 159 172 183 185 187 193 193 193 199 206 208 208 209 210 207 209 214 217 220 225 229 234 240 240 239 240 242 243 243 249 256 262 268 274 279 283 287 292 293 294
198 202 208 209 204 199 211 216 207 213 205 212 241 231 217 220 163 199 13 346 346 4 340 314 282 282 87 339 29 67 307 116 101 100 122 118 110 112 125 144 145 128 117 116 119 131 152 174 181 182 192 192 191 200 203 207 208 206 210 211 218 226 226 230 233 235 240 245 249 249 247 251 253 252 257 260 262 268 273 279 282 285 287 288 291
200 202 209 214 211 206 213 220 206 212 227 220 239 255 246 274 270 253 308 319 339 339 315 228 285 31 99 335 56 53 46 89 130 165 135 124 106 109 118 137 148 144 134 125 111 98 107 135 162 176 188 188 187 198 202 201 206 206 208 214 227 234 233 235 239 245 250 249 252 256 255 254 256 259 264 264 265 268 271 275 278 281 284 283 287
200 203 210 215 218 214 207 207 210 226 235 212 238 262 266 290 303 312 305 317 326 314 299 264 294 111 157 185 126 202 79 101 185 153 101 85 99 112 125 128 129 140 147 139 128 106 89 95 110 141 161 169 175 188 202 205 211 210 210 223 232 236 238 238 239 244 248 248 247 250 254 253 254 260 264 265 265 265 267 268 270 275 281 282 281
200 205 210 217 221 221 215 208 210 229 234 225 247 252 257 284 291 305 306 293 299 317 334 316 326 154 181 165 148 249 88 94 31 64 90 65 81 112 124 122 123 134 140 130 127 119 98 91 96 106 119 127 146 160 179 201 212 206 204 228 238 241 244 245 246 248 248 247 247 247 253 257 257 261 266 268 268 264 263 263 264 269 276 280 282
200 204 210 219 222 226 228 209 198 218 228 232 248 251 258 263 250 264 272 291 298 307 308 348 50 187 164 150 208 348 103 114 69 90 135 122 118 130 118 110 110 105 115 112 105 117 110 98 105 106 100 106 119 122 130 149 176 188 197 225 245 247 248 252 252 254 255 252 252 253 257 263 264 264 266 268 269 267 266 264 263 267 272 278 284
199 203 209 218 224 227 229 217 208 221 229 234 242 234 229 238 247 246 235 272 288 293 303 74 137 171 142 141 121 354 59 102 167 170 136 131 156 159 122 106 101 92 97 107 99 101 96 84 105 119 104 94 98 111 109 103 108 141 176 207 243 252 249 255 256 257 261 261 261 260 258 263 268 272 274 274 275 274 271 269 266 266 269 275 282
199 202 208 214 223 226 218 219 222 225 234 245 251 235 209 220 243 232 227 254 259 252 237 164 144 110 114 152 135 194 222 64 219 175 136 145 163 167 121 103 83 82 75 81 94 94 93 91 92 104 111 99 94 102 103 99 106 117 133 163 207 250 260 262 264 266 271 272 272 268 264 268 272 275 278 278 278 278 277 276 273 270 270 274 278
198 200 206 211 217 221 213 213 221 227 232 243 256 252 223 227 244 232 231 245 231 208 192 157 163 138 148 172 142 190 180 139 240 198 152 161 152 155 143 119 111 114 94 79 90 95 98 105 93 83 90 92 99 104 99 96 94 106 121 136 156 221 269 261 266 280 286 289 288 282 284 285 279 278 280 279 279 281 283 282 281 281 281 280 280
199 200 204 208 211 213 210 209 219 228 225 232 243 241 234 231 237 234 226 232 224 215 183 171 219 170 139 171 155 174 152 149 235 203 163 167 155 159 166 124 110 118 121 112 107 101 96 97 98 98 92 87 93 95 99 105 89 90 118 125 133 158 266 275 270 320 316 343 336 312 318 319 299 294 294 288 287 294 295 290 287 289 291 288 285
200 201 203 206 207 205 207 209 214 222 220 224 229 225 230 228 232 235 226 224 205 195 194 203 235 97 93 232 174 158 141 182 227 208 179 176 172 163 154 117 107 126 180 129 117 103 98 92 93 99 101 99 95 96 108 118 102 97 112 123 137 138 123 92 86 99 98 69 56 30 16 12 352 345 334 320 318 325 324 318 310 300 301 300 296
201 202 205 207 206 203 208 211 210 215 215 216 221 222 227 224 231 233 228 239 205 167 177 212 231 123 143 237 207 182 162 169 189 210 190 166 182 168 148 149 137 163 246 112 113 119 114 104 93 92 89 96 101 108 114 109 102 103 106 116 132 134 132 131 114 94 84 74 68 61 54 52 45 38 26 15 8 3 1 352 339 325 318 315 310
203 204 206 207 207 206 208 210 208 211 212 216 224 225 227 225 229 228 224 248 234 153 151 193 228 242 246 61 138 249 163 160 167 214 225 170 184 169 138 152 147 145 24 94 111 135 119 108 101 100 91 95 101 111 119 110 102 99 103 119 127 131 134 132 129 111 93 85 72 57 47 45 47 49 43 34 28 20 17 10 359 348 339 334 329
205 205 207 208 207 208 209 210 211 212 210 217 226 224 227 227 226 225 221 229 229 190 170 173 190 227 272 319 280 319 62 162 161 206 272 229 187 175 141 155 158 146 167 133 136 142 119 118 118 112 105 104 105 111 118 118 123 125 125 132 132 131 134 132 131 125 112 100 84 68 50 34 22 20 16 14 15 11 9 4 357 352 349 348 346
207 206 206 207 206 206 211 214 216 217 212 214 220 222 225 222 219 220 211 200 196 210 213 175 161 193 221 228 233 248 57 200 165 136 244 279 222 200 165 167 175 163 181 184 168 153 129 122 121 116 111 110 115 120 120 120 137 151 142 139 138 135 137 138 139 135 125 115 96 82 63 45 29 17 7 2 358 356 356 351 345 339 335 335 335
208 207 206 207 208 207 210 213 217 221 218 216 220 221 221 210 207 208 200 197 184 192 228 189 160 179 202 208 214 209 197 224 205 132 186 202 229 242 195 176 188 181 186 216 181 150 143 138 132 138 124 116 123 128 130 130 137 146 143 143 143 142 143 144 147 148 144 139 125 105 87 66 50 35 17 4 354 348 345 340 338 330 323 320 317
209 208 207 206 209 209 210 213 216 219 220 221 222 218 216 208 204 205 197 196 182 180 227 222 189 182 181 197 211 196 198 208 200 219 238 212 187 212 202 184 196 188 191 227 173 147 157 162 154 163 143 131 143 142 144 148 150 159 160 154 150 150 152 155 157 161 162 161 157 146 123 101 73 52 20 1 346 340 337 332 330 326 319 315 312
208 209 208 207 208 210 211 214 216 218 219 222 224 217 214 212 208 210 201 193 189 188 207 221 227 205 169 184 212 198 195 206 193 192 217 272 233 204 189 184 196 190 191 217 192 166 165 155 156 185 173 160 170 163 167 172 169 178 186 181 171 169 166 167 172 175 180 184 183 186 191 209 270 307 319 321 321 321 320 319 317 316 313 310 308
208 208 210 209 209 209 211 215 215 218 219 219 223 218 214 214 208 209 203 192 192 197 205 209 217 219 179 178 203 207 195 203 210 206 193 180 214 236 198 179 192 183 181 208 214 217 181 153 177 206 175 173 198 195 190 185 181 194 209 209 195 193 192 190 194 196 199 206 211 216 230 253 269 279 288 291 292 294 295 298 299 300 300 299 299
210 209 211 211 209 208 210 213 213 215 217 216 217 217 215 213 206 203 201 196 199 204 210 210 206 210 201 185 194 207 197 198 218 230 214 187 207 254 234 348 353 168 166 189 209 216 205 192 220 223 198 196 201 203 201 190 199 215 218 216 215 215 216 214 213 215 217 218 223 231 242 254 265 274 280 283 285 286 286 286 287 288 289 290 293
211 211 212 210 208 208 208 210 211 212 213 211 211 214 215 212 204 201 200 198 203 210 213 213 207 206 209 199 196 205 200 198 214 218 205 204 226 242 226 221 224 171 155 180 206 210 212 210 211 210 209 211 204 202 208 205 214 228 225 220 230 233 230 232 230 227 228 226 230 237 245 257 267 274 281 284 286 286 285 285 284 284 284 284 285
211 213 213 211 209 209 208 209 210 209 208 206 205 207 209 209 205 202 203 200 202 211 215 215 212 209 211 209 204 208 203 195 206 214 199 190 204 223 217 209 225 187 153 176 205 212 218 216 209 205 199 209 218 209 213 226 227 234 236 224 233 243 241 241 240 237 236 234 238 243 250 262 270 277 283 286 287 288 287 287 285 284 284 283 283
211 212 211 210 209 209 209 209 210 209 206 203 201 202 204 205 207 206 207 206 204 210 215 216 215 211 211 215 213 211 207 199 198 204 207 198 196 208 208 208 234 207 169 178 196 211 225 220 205 209 202 204 224 223 221 234 237 241 244 228 232 246 250 249 246 244 242 239 242 247 254 265 275 282 286 287 289 290 290 289 288 287 286 285 285
212 211 209 208 208 207 207 208 209 209 208 205 200 200 202 204 207 206 207 209 206 210 214 216 218 214 210 213 218 215 206 205 204 197 205 211 198 196 200 202 219 223 189 183 192 207 221 219 196 194 198 199 213 227 225 229 242 250 246 235 234 243 251 253 249 247 244 243 245 249 257 267 276 282 284 285 288 289 290 290 290 291 290 288 288
212 211 209 207 206 206 206 206 208 208 208 208 204 201 202 204 207 206 207 209 208 211 215 216 217 216 212 209 214 220 210 204 209 202 200 205 201 194 197 203 211 223 215 195 211 213 206 216 208 186 190 200 204 218 222 224 240 244 238 235 235 238 245 248 250 248 243 242 246 250 258 269 275 279 279 281 285 285 286 288 290 291 291 290 290
212 212 210 208 206 205 205 205 205 205 206 207 205 203 202 204 207 207 209 209 209 211 213 215 216 214 214 210 208 214 213 205 206 205 199 198 202 201 200 205 209 219 230 212 221 223 203 220 229 187 182 195 201 213 221 223 235 237 232 235 236 235 238 240 246 249 242 240 245 250 260 267 270 273 275 279 282 282 283 285 289 292 292 291 289
210 210 209 208 206 205 205 205 204 203 203 204 204 204 202 204 206 207 210 211 211 211 211 212 215 212 212 211 207 209 210 205 205 207 203 197 201 206 204 208 208 213 228 229 221 221 207 218 230 183 175 192 204 215 218 219 232 235 229 231 237 239 238 239 245 247 242 243 247 252 259 262 265 269 273 277 279 279 281 283 287 291 291 291 291
209 209 209 209 208 206 205 206 206 204 202 202 203 203 204 204 205 207 210 210 211 213 210 210 211 211 211 211 209 206 206 205 206 207 206 201 202 207 206 207 210 210 216 223 230 226 214 219 226 204 192 197 200 211 219 218 226 233 231 228 236 243 241 242 249 249 246 247 251 255 255 256 263 268 272 275 276 277 278 279 284 287 289 292 294
209 209 209 210 209 208 207 208 209 207 203 201 202 202 204 205 206 209 209 209 212 214 212 210 210 208 208 209 209 207 204 204 206 207 207 203 202 207 208 206 209 210 209 214 226 230 225 223 225 230 227 209 199 207 219 219 221 228 232 228 232 239 239 241 247 247 247 252 256 258 258 261 266 269 272 273 274 275 276 276 279 283 288 293 295
208 209 210 210 210 209 209 208 208 208 204 201 201 202 204 205 205 208 208 207 209 212 212 211 210 209 206 206 207 207 205 206 209 210 209 205 204 206 208 208 208 209 207 209 217 226 230 223 218 228 236 222 215 215 216 222 225 225 224 223 228 234 237 242 247 245 244 250 255 256 259 266 270 272 273 273 273 273 274 275 277 283 289 293 295
209 210 210 210 209 208 209 209 208 207 205 203 203 203 205 206 206 207 207 206 206 208 209 210 210 209 207 205 206 205 205 208 210 212 212 210 209 209 209 208 210 210 207 207 212 220 229 226 219 223 226 221 222 223 223 227 230 227 224 226 229 232 236 241 247 251 251 251 251 253 261 270 275 275 274 272 271 271 271 272 276 282 288 293 296
210 210 210 209 208 207 208 208 207 207 206 203 204 205 206 206 208 208 207 206 206 206 207 208 208 209 207 205 205 205 204 206 209 211 213 212 211 211 211 209 210 213 209 207 210 217 227 232 227 224 225 223 220 222 227 229 229 231 232 231 232 233 236 238 245 254 257 255 253 256 265 273 276 276 274 271 269 268 268 270 274 280 286 293 295
212 211 209 208 207 206 206 207 207 206 206 205 204 206 207 207 209 210 209 208 207 206 206 207 208 208 208 207 205 204 204 205 207 209 210 211 211 212 213 211 209 211 211 209 210 214 222 231 232 227 227 228 225 222 226 227 228 232 234 235 236 237 236 240 248 255 254 254 256 259 266 273 276 275 272 270 269 267 266 267 272 278 284 289 291
212 212 209 207 206 206 205 206 207 205 205 205 205 206 207 208 209 211 212 212 210 208 206 207 208 208 209 208 207 205 205 205 207 208 207 208 211 212 213 212 210 209 211 212 211 214 219 225 231 230 227 229 229 227 226 226 228 232 235 234 233 233 234 239 249 256 255 254 252 254 262 270 272 274 275 273 269 266 265 269 276 280 284 288 288
210 211 211 208 206 205 204 204 206 205 204 205 206 207 208 209 209 210 212 213 213 210 207 207 210 211 210 210 209 207 206 207 207 207 206 206 209 211 212 211 210 209 210 211 212 214 218 222 225 229 232 234 236 236 234 230 230 234 236 234 230 228 227 231 245 255 259 262 261 259 263 265 265 272 279 277 271 269 271 274 278 281 285 287 286
209 211 211 209 206 205 205 204 204 204 204 204 205 207 208 209 209 209 210 213 214 214 211 210 214 217 214 211 212 211 208 208 209 207 206 205 206 209 210 210 210 210 210 210 211 213 218 221 223 229 236 238 239 241 238 232 230 229 229 232 235 232 225 229 242 254 263 267 269 274 275 267 266 272 274 271 271 273 273 274 279 285 289 286 280
210 211 212 211 208 206 205 204 204 204 205 205 206 207 207 208 209 209 210 212 215 216 214 213 216 219 217 213 215 215 212 210 210 209 208 206 206 207 207 207 208 209 211 210 210 212 215 218 223 233 238 237 237 240 237 232 231 231 231 232 234 232 232 239 244 249 259 262 265 275 276 267 271 275 267 262 270 275 275 277 281 283 279 268 266
210 211 212 213 211 209 206 205 204 205 206 208 209 210 209 208 208 209 210 212 214 216 216 215 216 219 219 216 217 218 216 214 213 212 211 209 209 208 207 206 206 207 208 210 210 211 212 215 222 231 236 237 236 236 237 237 237 239 238 234 233 234 236 245 251 251 252 255 260 270 272 270 277 280 273 272 277 278 277 277 269 259 258 265 278
209 210 211 213 214 212 209 207 206 206 207 211 212 212 212 211 209 209 210 211 213 214 216 216 216 218 218 217 218 218 218 216 216 216 216 213 212 212 210 209 208 207 207 208 210 210 211 216 222 228 235 238 233 232 234 233 230 232 233 229 233 237 233 240 255 257 245 240 248 264 272 273 271 272 277 279 281 281 276 266 254 263 287 298 300
208 209 211 212 213 213 211 210 210 210 210 213 214 213 213 213 212 210 210 212 212 213 215 216 216 216 216 216 217 217 216 216 215 217 220 218 216 215 214 213 212 211 210 209 210 210 210 216 223 228 234 237 234 232 233 232 228 223 219 221 230 236 235 239 250 257 249 238 243 263 273 274 268 271 277 277 278 280 273 266 275 285 291 293 296
206 208 210 210 211 213 213 212 212 213 214 214 215 214 215 215 215 213 211 212 213 213 213 215 215 215 214 214 215 215 214 214 212 213 218 220 219 218 217 216 215 215 215 213 213 212 213 219 228 230 231 234 237 234 233 237 240 225 209 213 228 234 236 237 241 247 245 227 227 251 268 274 276 276 278 278 276 276 271 270 277 280 282 289 298
205 207 209 210 211 212 214 215 214 216 217 217 216 216 216 217 217 215 213 213 215 215 214 213 213 213 212 211 211 211 212 212 209 208 211 215 217 218 217 218 218 217 218 218 216 215 215 221 231 232 227 230 236 237 233 233 237 230 218 218 228 233 233 236 240 244 243 229 219 230 256 266 274 274 275 280 280 277 273 270 272 280 288 295 299
205 207 208 210 211 212 214 215 217 219 220 219 218 217 217 219 219 217 214 213 216 218 216 213 212 212 212 210 209 209 208 207 208 208 206 205 209 212 213 215 217 217 218 219 218 217 218 222 230 233 228 227 230 233 232 225 223 223 220 221 226 227 230 239 243 245 248 234 210 203 239 256 261 271 275 282 286 284 282 281 285 292 292 290 295
206 208 209 211 212 213 214 215 218 221 221 221 220 219 218 219 219 217 214 213 215 218 217 215 213 212 211 209 208 208 207 206 209 211 209 202 199 202 206 210 213 216 217 218 217 216 217 221 227 229 228 229 227 224 221 217 213 212 210 210 211 211 223 238 241 245 249 228 199 201 237 248 246 267 278 283 288 286 285 287 285 282 280 285 298
208 208 210 211 212 213 214 214 216 221 224 224 222 220 219 218 216 215 214 213 215 219 219 217 216 214 213 211 208 207 207 208 211 212 210 203 194 195 200 203 207 212 214 216 217 216 216 219 222 224 227 231 231 222 215 208 201 199 200 205 207 210 217 224 234 247 256 233 204 204 216 227 234 266 280 284 287 283 281 282 277 268 271 289 300
209 210 210 212 214 215 216 216 216 220 225 227 225 223 220 217 214 214 213 212 215 219 219 219 219 218 218 216 213 209 207 209 213 213 209 202 194 192 196 198 202 208 208 206 207 210 213 217 220 222 224 227 229 220 211 206 202 199 202 209 216 225 232 235 240 249 256 249 219 190 180 211 245 266 277 282 282 277 276 280 277 273 280 291 299
211 212 213 215 217 219 221 221 221 222 225 228 228 226 222 218 215 214 212 210 214 218 218 219 220 220 222 222 218 214 211 210 212 213 209 204 198 195 196 197 200 204 205 198 194 198 203 208 213 215 215 216 216 211 206 207 209 210 210 215 223 232 243 251 249 240 242 237 199 178 183 226 250 258 269 279 282 278 278 281 278 277 281 288 296